Regional Weather Roundup
Issued by NWS Green Bay, WI

Home | Current Version | Previous Version | Graphics & Text | Print | Product List | Glossary Off
Versions: 1 2 3 4 5 6 7 8 9 10 11 12 13 14 15 16 17 18 19 20 21 22 23 24 25 26 27 28 29 30 31 32 33 34 35 36 37 38 39 40 41 42 43 44 45 46 47 48 49 50

523
ASUS43 KGRB 261800
RWRGRB

NORTH-CENTRAL AND NORTHEAST WISCONSIN REGIONAL WEATHER ROUNDUP
NATIONAL WEATHER SERVICE GREEN BAY WI
100 PM CDT MON SEP 26 2016

WIZ005-009-010>012-018-019-261900-
NORTH CENTRAL WISCONSIN

CITY           SKY/WX    TMP DP  RH WIND       PRES   REMARKS
IRONWOOD       LGT RAIN  50  48  93 W20G29    29.68S
MANITOWISH WTR RAIN      49  47  96 W17G23    29.70S
ARBOR VITAE    NOT AVBL
EAGLE RIVER    NOT AVBL
LAND O LAKES   LGT RAIN  49  46  92 W12G20    29.70R
RHINELANDER    CLOUDY    54  42  64 W25G43    29.73S
PHILLIPS       CLOUDY    53  40  62 W14G25    29.75S
ANTIGO         NOT AVBL
TOMAHAWK       PTSUNNY   55  39  55 W16G29    29.75F
MERRILL        CLOUDY    55  41  58 NW14G24   29.77S
$$

WIZ013-073-261900-
NORTHEAST WISCONSIN

CITY           SKY/WX    TMP DP  RH WIND       PRES   REMARKS
IRON MOUNTAIN  CLOUDY    54  43  66 W12G22    29.67R
MARINETTE      CLOUDY    59  45  59 W10G26    29.73S
$$

WIZ017-030-035>037-045-261900-
CENTRAL WISCONSIN

CITY           SKY/WX    TMP DP  RH WIND       PRES   REMARKS
MEDFORD        NOT AVBL
WAUSAU         CLOUDY    58  39  49 W20G32    29.77S
MOSINEE        CLOUDY    59  37  44 W29G36    29.80F
MARSHFIELD     CLOUDY    59  37  44 W21G32    29.81F
WISC RAPIDS    PTSUNNY   62  38  40 NW16G30   29.84F
STEVENS POINT  NOT AVBL
WAUPACA        MOSUNNY   64  38  38 W22G33    29.82R
SHAWANO        NOT AVBL
CLINTONVILLE   NOT AVBL
WAUTOMA        CLOUDY    62  38  40 W25G33    29.84F
$$

WIZ038-039-048-051-261900-
FOX VALLEY

CITY           SKY/WX    TMP DP  RH WIND       PRES   REMARKS
NWS GREEN BAY  MOSUNNY   63  42  46 W20G32    29.78S
APPLETON       PTSUNNY   61  36  39 W25G35    29.80S
OSHKOSH        PTSUNNY   62  38  40 W16G28    29.82S
FOND DU LAC    PTSUNNY   63  39  41 W22G33    29.85S
$$

WIZ022-050-052-261900-
EAST CENTRAL WISCONSIN

CITY           SKY/WX    TMP DP  RH WIND       PRES   REMARKS
EPHRAIM        CLOUDY    56  45  65 W16G28    29.72F
WASHINGTON ISL NOT AVBL
STURGEON BAY   CLOUDY    60  46  59 W15G23    29.75F
MANITOWOC      NOT AVBL
SHEBOYGAN      PTSUNNY   62  37  39 W21G31    29.84S
$$

LMZ563-521-522-541>543-261900-
LAKESHORE

STATION/POSITION TIME  TEMP    WIND        PRES    VSBY  WAVE
                       AIR SEA DIR/SP/G                  HT/PER
                 (UTC) (F)     (DEG/KT/KT) (MB)    (MI)  (FT/S)
SHEBOYGAN LKSHOR 1700   62     250/ 21/ 27 1009.6F
KEWAUNEE LKSHORE 1700   60     270/ 13/ 23 1008.0F
NORTHPORT PIER   1700   57     250/  6/ 19 1006.4S
N MID LAKE BUOY  1650   58 67  250/ 25/ 31 1005.0F         6/ 7
CHAMBERS ISLAND  1700   57     220/ 12/ 24 1006.4S
MENOMINEE LKSHOR 1700   58     250/ 19/ 27 1006.1F
$$




USA.gov is the U.S. government's official web portal to all federal, state and local government web resources and services.